Location: Naloco
(16.5478°S, 37.1017°E)
Time: 02:52:14
(UTC+00:00)

YAOGAN 1 - Pass Details

Date: 13 August 2020
Orbit: 618 x 620 km, 97.9° (Epoch: 23 September)

Event Time Altitude Azimuth Distance (km) Brightness Sun altitude
Exits shadow 15:51:12 - 120° (ESE) 2,160 4.7 -7.5°
Reaches altitude 10° 15:51:57 10° 112° (ESE) 1,993 4.5 -7.7°
Maximum altitude 15:54:06 14° 82° (E) 1,762 4.3 -8.2°
Drops below altitude 10° 15:56:15 10° 52° (NE) 1,983 4.8 -8.7°
Sets 15:59:28 0° 26° (NNE) 2,880 5.8 -9.4°
